Location: Brno
(49.2000°N, 16.6330°E)
Time: 10:37:44
(UTC+02:00)

ISS - Pass Details

Date: 22 May 2021
Orbit: 417 x 422 km, 51.6° (Epoch: 13 June)

Event Time Altitude Azimuth Distance (km) Brightness Sun altitude
Rises 22:57:49 0° 286° (WNW) 2,367 0.7 -15.9°
Reaches altitude 10° 22:59:56 10° 289° (WNW) 1,503 -0.3 -16.1°
Maximum altitude 23:03:18 66° 12° (NNE) 462 -3.4 -16.3°
Enters shadow 23:05:24 21° 92° (E) 1,009 -2.1 -16.4°
